TimeCEST,TemperatureF,Dew PointF,Humidity,Sea Level PressureIn,VisibilityMPH,Wind Direction,Wind SpeedMPH,Gust SpeedMPH,PrecipitationIn,Events,Conditions,WindDirDegrees,DateUTC
12:00 AM,66.2,62.6,88,30.15,6.2,Calm,Calm,-,N/A,,Partly Cloudy,0,2012-10-02 22:00:00
12:30 AM,66.2,62.6,88,30.15,6.2,Calm,Calm,-,N/A,,Partly Cloudy,0,2012-10-02 22:30:00
1:00 AM,66.2,62.6,88,30.15,6.2,North,1.2,-,N/A,,Partly Cloudy,350,2012-10-02 23:00:00
1:30 AM,66.2,62.6,88,30.15,6.2,North,1.2,-,N/A,,Partly Cloudy,360,2012-10-02 23:30:00
2:00 AM,64,59,79,30.16,12,Calm,Calm,,,,Scattered Clouds,,2012-10-03 00:00:00
2:00 AM,64.4,62.6,94,30.15,6.2,Calm,Calm,-,N/A,,Partly Cloudy,0,2012-10-03 00:00:00
2:30 AM,64.4,62.6,94,30.15,6.2,Calm,Calm,-,N/A,,Partly Cloudy,0,2012-10-03 00:30:00
3:00 AM,64.4,62.6,94,30.15,6.2,Variable,1.2,-,N/A,,Partly Cloudy,0,2012-10-03 01:00:00
3:30 AM,64.4,62.6,94,30.12,6.2,Calm,Calm,-,N/A,,Partly Cloudy,0,2012-10-03 01:30:00
4:00 AM,64.4,62.6,94,30.12,6.2,NNE,2.3,-,N/A,,Partly Cloudy,20,2012-10-03 02:00:00
4:30 AM,62.6,60.8,94,30.12,6.2,Variable,1.2,-,N/A,,Partly Cloudy,0,2012-10-03 02:30:00
5:00 AM,62.6,60.8,94,30.12,6.2,Calm,Calm,-,N/A,,Partly Cloudy,0,2012-10-03 03:00:00
5:30 AM,60.8,59.0,94,30.12,6.2,Calm,Calm,-,N/A,,Partly Cloudy,0,2012-10-03 03:30:00
6:00 AM,60.8,59.0,94,30.12,6.2,ENE,1.2,-,N/A,,Partly Cloudy,60,2012-10-03 04:00:00
6:30 AM,59.0,59.0,100,30.12,6.2,Variable,1.2,-,N/A,Fog,Patches of Fog,0,2012-10-03 04:30:00
7:00 AM,60.8,59.0,94,30.12,6.2,NE,1.2,-,N/A,Fog,Patches of Fog,40,2012-10-03 05:00:00
7:30 AM,59.0,59.0,100,30.12,5.6,Variable,2.3,-,N/A,Fog,Patches of Fog,0,2012-10-03 05:30:00
8:00 AM,61,58,88,30.15,7,Calm,Calm,,,,Scattered Clouds,,2012-10-03 06:00:00
8:00 AM,60.8,59.0,94,30.12,5.6,East,1.2,-,N/A,Fog,Patches of Fog,80,2012-10-03 06:00:00
8:30 AM,62.6,60.8,94,30.15,6.2,Calm,Calm,-,N/A,,Partly Cloudy,0,2012-10-03 06:30:00
9:00 AM,64.4,62.6,94,30.15,6.2,Variable,1.2,-,N/A,,Partly Cloudy,0,2012-10-03 07:00:00
9:30 AM,66.2,64.4,94,30.15,6.2,Variable,1.2,-,N/A,,Partly Cloudy,0,2012-10-03 07:30:00
10:00 AM,69.8,66.2,88,30.15,6.2,Variable,1.2,-,N/A,,Partly Cloudy,0,2012-10-03 08:00:00
10:30 AM,73.4,64.4,73,30.15,6.2,Calm,Calm,-,N/A,,Partly Cloudy,0,2012-10-03 08:30:00
11:00 AM,75.2,64.4,69,30.18,6.2,SSW,5.8,-,N/A,,Partly Cloudy,210,2012-10-03 09:00:00
11:30 AM,75.2,64.4,69,30.18,6.2,SW,8.1,-,N/A,,Partly Cloudy,220,2012-10-03 09:30:00
12:00 PM,75.2,64.4,69,30.18,6.2,SW,9.2,-,N/A,,Partly Cloudy,230,2012-10-03 10:00:00
12:30 PM,75.2,62.6,65,30.18,6.2,SW,9.2,-,N/A,,Partly Cloudy,230,2012-10-03 10:30:00
1:00 PM,75.2,64.4,69,30.18,6.2,WSW,9.2,-,N/A,,Partly Cloudy,240,2012-10-03 11:00:00
1:30 PM,77.0,64.4,65,30.15,6.2,SW,6.9,-,N/A,,Partly Cloudy,230,2012-10-03 11:30:00
2:00 PM,77,60,46,30.17,17,SSW,9.2,,,,Scattered Clouds,200,2012-10-03 12:00:00
2:00 PM,75.2,62.6,65,30.15,6.2,SSW,8.1,-,N/A,,Partly Cloudy,210,2012-10-03 12:00:00
2:30 PM,75.2,62.6,65,30.12,6.2,SW,6.9,-,N/A,,Partly Cloudy,230,2012-10-03 12:30:00
3:00 PM,77.0,62.6,61,30.12,6.2,SSW,8.1,-,N/A,,Partly Cloudy,210,2012-10-03 13:00:00
3:30 PM,75.2,62.6,65,30.12,6.2,SW,10.4,-,N/A,,Partly Cloudy,230,2012-10-03 13:30:00
4:00 PM,75.2,62.6,65,30.12,6.2,SW,11.5,-,N/A,,Partly Cloudy,230,2012-10-03 14:00:00
4:30 PM,77.0,62.6,61,30.09,6.2,SW,10.4,-,N/A,,Partly Cloudy,220,2012-10-03 14:30:00
5:00 PM,75.2,62.6,65,30.09,6.2,SW,10.4,-,N/A,,Partly Cloudy,220,2012-10-03 15:00:00
5:30 PM,75.2,62.6,65,30.09,6.2,SSW,10.4,-,N/A,,Partly Cloudy,210,2012-10-03 15:30:00
6:00 PM,75.2,62.6,65,30.09,6.2,SSW,9.2,-,N/A,,Partly Cloudy,210,2012-10-03 16:00:00
6:30 PM,75.2,62.6,65,30.09,6.2,SW,9.2,-,N/A,,Partly Cloudy,220,2012-10-03 16:30:00
7:00 PM,73.4,62.6,69,30.09,6.2,SW,8.1,-,N/A,,Partly Cloudy,220,2012-10-03 17:00:00
7:30 PM,73.4,62.6,69,30.09,6.2,SW,5.8,-,N/A,,Partly Cloudy,220,2012-10-03 17:30:00
8:00 PM,72,61,59,30.11,16,SSW,6.9,,,,Scattered Clouds,200,2012-10-03 18:00:00
8:00 PM,73.4,64.4,73,30.09,6.2,SSW,3.5,-,N/A,,Partly Cloudy,200,2012-10-03 18:00:00
8:30 PM,71.6,62.6,73,30.09,6.2,SSE,2.3,-,N/A,,Partly Cloudy,160,2012-10-03 18:30:00
9:00 PM,71.6,62.6,73,30.09,6.2,SE,1.2,-,N/A,,Partly Cloudy,140,2012-10-03 19:00:00
9:30 PM,69.8,62.6,78,30.12,6.2,East,1.2,-,N/A,,Partly Cloudy,90,2012-10-03 19:30:00
10:00 PM,66.2,60.8,83,30.12,6.2,East,2.3,-,N/A,,Partly Cloudy,80,2012-10-03 20:00:00
10:30 PM,64.4,60.8,88,30.12,6.2,Variable,2.3,-,N/A,,Partly Cloudy,0,2012-10-03 20:30:00
11:00 PM,64.4,60.8,88,30.12,6.2,ENE,3.5,-,N/A,,Partly Cloudy,70,2012-10-03 21:00:00
11:30 PM,62.6,59.0,88,30.12,6.2,ENE,1.2,-,N/A,,Partly Cloudy,70,2012-10-03 21:30:00